Flag Weather past 2 weeks in Ajmān, Ajmān, United Arab Emirates

Now
77 °F

Clear.


Feels Like: 79 °F
Forecast: 81 / 92 °F
Wind: 5 mph from East

Location: Sharjah International Airport

Current Time: Oct 31, 2014 at 3:43:08 AM

Latest Report: Oct 31, 2014 at 3:00 AM


Visibility: 10 mi

Pressure: 29.86 "Hg

Humidity: 47%

Dew point: 55 °F

Location of AjmānLocation

Historic Weather in Ajmān — Graph

°F

Ajmān temperature yesterday

Maximum temperature yesterday: 97 °F (at 2:00 PM)
Minimum temperature yesterday: 73 °F (at 6:00 AM)
Average temperature yesterday: 85 °F

Past Weeks' High & Low Weather Summary

 TemperatureHumidityPressure
High100 °F (Oct 17, 12:00 PM)84% (Oct 27, 3:00 AM)30.01 "Hg (Oct 27, 3:00 AM)
Low72 °F (Oct 24, 5:00 AM)14% (Oct 28, 12:00 PM)29.80 "Hg (Oct 19, 3:00 PM)
Average86 °F50%29.90 "Hg
* Reported Oct 16 2:00 AM — Oct 31 2:00 AM, Ajmān, Weather by CustomWeather, © 2014

Note: Actual official high and low records may vary slightly from our data, if they occured in-between our weather recording intervals... More about our weather records

Advertising

Ajmān weather history for previous 24 hours

 ConditionsComfort  
Time TempWeatherWind HumidityBarometerVisibility
2:00 AM
Oct 31
77 °FClear.6 mph47%29.86 "Hg10 mi
1:00 AM79 °FClear.5 mph45%29.86 "Hg10 mi
12:00 AM81 °FClear.6 mph42%29.86 "Hg10 mi
11:00 PM
Oct 30
82 °FClear.6 mph37%29.86 "Hg10 mi
10:00 PM84 °FClear.8 mph33%29.86 "Hg10 mi
9:00 PM86 °FPassing clouds.3 mph31%29.86 "HgN/A
8:00 PM88 °FClear.9 mph27%29.86 "Hg10 mi
7:00 PM90 °FClear.12 mph27%29.83 "Hg10 mi
6:00 PM91 °FClear.14 mph24%29.83 "Hg10 mi
5:00 PM95 °FSunny.13 mph20%29.80 "Hg10 mi
4:00 PM97 °FPassing clouds.12 mph20%29.80 "HgN/A
3:00 PM95 °FPassing clouds.12 mph23%29.80 "HgN/A
2:00 PM97 °FPassing clouds.10 mph23%29.83 "HgN/A
1:00 PM95 °FPassing clouds.8 mph23%29.83 "HgN/A
12:00 PM93 °FPassing clouds.9 mph26%29.89 "HgN/A
10:00 AM91 °FPassing clouds.8 mph23%29.92 "HgN/A
9:00 AM86 °FSunny.6 mph33%29.92 "Hg10 mi
8:00 AM77 °FSunny.7 mph39%29.92 "Hg10 mi
7:00 AM73 °FSunny.3 mph47%29.89 "Hg10 mi
6:00 AM73 °FClear.No wind47%29.89 "Hg10 mi
5:00 AM77 °FClear.8 mph39%29.86 "Hg10 mi
4:00 AM75 °FClear.3 mph36%29.86 "Hg10 mi
3:00 AM75 °FClear.1 mph36%29.86 "Hg10 mi
Weather by CustomWeather, © 2014

See weather overviewHow to use our weather pages